SPACEBEE-39 (46958 NORAD) Tracking and Keplerian Element Data

This shows tracking and keplerian element data for the satellite.

Feedback or suggestion? Click here.




ElementValue
Catalog46958
NameSPACEBEE-39
Epoch Orbit826
Epoch Day18.0606773
Epoch Year2021
RAAN157.477
Inclination97.3734
Eccentricity0.0017174
Argument of Perigee93.9105
Mean Anonmoly266.4054
Mean Motion15.21607737
Decay Rate3.411E-05
L11 46958U 20085AF 21018.06067730 .00003411 00000-0 15363-3 0 9998
L22 46958 97.3734 157.4770 0017174 93.9105 266.4054 15.21607737 8267

Live tracking and technical data element details for SPACEBEE-39 (NORAD 46958). SPACEBEE-39 can be tracked NOW for your location showing map with azimuth and elevation plus other details from your city location.

Track the satellite on the map from your city or location and see movement details for azimuth, elevation, latitude, longitude, range, height, and movement on the map or in text.







IsCatalogInMostPopularTable: catalog: 46958, numindb: 18
Update: records affected: 1



GetName: 46958 SPACEBEE-39

Hit Count: updated at: Mon, 18 Jan 2021 15:45:59 GMT